Flag for United Kingdom Weather past 2 weeks in Liverpool, England, United Kingdom

Now
48 °F

Passing clouds.


Feels Like: 40 °F
Forecast: 47 / 49 °F
Wind: 25 mph from West

Location: Liverpool Airport

Current Time: Dec 19, 2014 at 12:37:02 PM

Latest Report: Dec 19, 2014 at 12:20 PM


Visibility: N/A

Pressure: 29.92 "Hg

Humidity: 71%

Dew point: 39 °F

Location of LiverpoolLocation

Historic Weather in Liverpool — Graph

°F

Liverpool temperature yesterday

Maximum temperature yesterday: 55 °F (at 4:20 AM)
Minimum temperature yesterday: 48 °F (at 10:20 PM)
Average temperature yesterday: 54 °F

Past Weeks' High & Low Weather Summary

 TemperatureHumidityPressure
High55 °F (Dec 18, 4:20 AM)100% (Dec 6, 5:50 AM)30.36 "Hg (Dec 6, 5:50 AM)
Low34 °F (Dec 6, 2:20 AM)62% (Dec 10, 2:20 PM)29.15 "Hg (Dec 12, 3:50 AM)
Average44 °F84%29.83 "Hg
* Reported Dec 4 11:20 AM — Dec 19 11:20 AM, Liverpool, Weather by CustomWeather, © 2014

Note: Actual official high and low records may vary slightly from our data, if they occured in-between our weather recording intervals... More about our weather records

Advertising

Liverpool weather history for previous 24 hours

 ConditionsComfort  
Time TempWeatherWind HumidityBarometerVisibility
11:20 AM
Dec 19
46 °FScattered clouds.21 mph76%29.92 "HgN/A
10:50 AM46 °FScattered showers. Scattered clouds.21 mph76%29.92 "HgN/A
10:20 AM46 °FScattered showers. Scattered clouds.22 mph76%29.89 "HgN/A
9:50 AM46 °FSprinkles. Scattered clouds.20 mph76%29.86 "HgN/A
9:20 AM45 °FSprinkles. Scattered clouds.21 mph81%29.86 "HgN/A
8:50 AM46 °FScattered clouds.22 mph76%29.86 "HgN/A
8:20 AM46 °FLight rain. Passing clouds.21 mph76%29.83 "HgN/A
7:50 AM45 °FPassing clouds.20 mph76%29.80 "HgN/A
7:20 AM45 °FPassing clouds.20 mph76%29.80 "HgN/A
6:50 AM46 °FPassing clouds.14 mph71%29.80 "HgN/A
6:20 AM45 °FPassing clouds.15 mph76%29.77 "HgN/A
5:50 AM45 °FPassing clouds.17 mph76%29.77 "HgN/A
5:20 AM46 °FPassing clouds.20 mph76%29.77 "HgN/A
4:50 AM45 °FPassing clouds.21 mph76%29.74 "HgN/A
4:20 AM46 °FPassing clouds.21 mph71%29.74 "HgN/A
3:50 AM46 °FPassing clouds.17 mph76%29.74 "HgN/A
3:20 AM48 °FPassing clouds.13 mph76%29.74 "HgN/A
2:50 AM48 °FPassing clouds.20 mph76%29.71 "HgN/A
2:20 AM48 °FPassing clouds.15 mph82%29.71 "HgN/A
1:50 AM48 °FPassing clouds.17 mph82%29.71 "HgN/A
1:20 AM48 °FSprinkles. Passing clouds.14 mph87%29.68 "Hg6 mi
12:50 AM48 °FSprinkles. Passing clouds.15 mph94%29.68 "Hg6 mi
12:20 AM48 °FSprinkles. Passing clouds.13 mph94%29.68 "Hg6 mi
11:50 PM
Dec 18
48 °FSprinkles. Partly cloudy.16 mph94%29.68 "Hg6 mi
11:20 PM48 °FSprinkles. Partly cloudy.18 mph94%29.65 "Hg6 mi
10:50 PM50 °FSprinkles. Passing clouds.16 mph94%29.65 "Hg4 mi
10:20 PM48 °FSprinkles. Passing clouds.16 mph94%29.65 "Hg4 mi
9:50 PM50 °FSprinkles. Passing clouds.14 mph94%29.65 "Hg4 mi
9:20 PM50 °FSprinkles. Partly cloudy.23 mph94%29.65 "Hg4 mi
8:50 PM54 °FSprinkles. Passing clouds.17 mph88%29.62 "HgN/A
8:20 PM55 °FPassing clouds.18 mph82%29.62 "HgN/A
7:50 PM54 °FPassing clouds.20 mph88%29.62 "HgN/A
7:20 PM54 °FPassing clouds.17 mph88%29.62 "HgN/A
6:50 PM54 °FPassing clouds.17 mph88%29.62 "HgN/A
6:20 PM55 °FPassing clouds.18 mph82%29.62 "HgN/A
5:50 PM55 °FPassing clouds.18 mph82%29.62 "HgN/A
5:20 PM55 °FPassing clouds.16 mph82%29.59 "HgN/A
4:50 PM55 °FSprinkles. Passing clouds.20 mph82%29.59 "HgN/A
4:20 PM55 °FSprinkles. Passing clouds.21 mph88%29.59 "HgN/A
3:50 PM55 °FScattered clouds.22 mph82%29.59 "HgN/A
3:20 PM55 °FSprinkles. Scattered clouds.21 mph88%29.59 "Hg6 mi
2:50 PM55 °FScattered clouds.23 mph82%29.59 "HgN/A
2:20 PM55 °FScattered clouds.21 mph82%29.59 "HgN/A
1:50 PM55 °FScattered clouds.22 mph82%29.59 "HgN/A
1:20 PM55 °FBroken clouds.22 mph82%29.59 "HgN/A
12:50 PM55 °FBroken clouds.21 mph82%29.62 "HgN/A
12:20 PM55 °FSprinkles. Broken clouds.23 mph82%29.59 "HgN/A
Weather by CustomWeather, © 2014

See weather overviewHow to use our weather pages